Weather History for KDUH - November, 2013

Change the Weather History Date:

Thursday, November 21, 2013

  Actual Average (KTOL) Record (KTOL)
Temperature  
Mean Temperature 44 °F 39 °F  
Max Temperature 46 °F 47 °F 69 °F (1934)
Min Temperature 41 °F 31 °F 9 °F (1880)
Degree Days  
Heating Degree Days 22 26  
Month to date heating degree days 455  
Since 1 July heating degree days 981  
Cooling Degree Days 0 0  
Month to date cooling degree days 0  
Year to date cooling degree days 793  
Moisture  
Dew Point 38 °F    
Average Humidity 81    
Maximum Humidity 100    
Minimum Humidity 61    
Precipitation  
Precipitation 0.00 in 0.10 in 1.50 in (2007)
Month to date precipitation 1.97  
Year to date precipitation 30.67  
Snow  
Snow 0.00 in 0.00 in - ()
Month to date snowfall 0.9  
Since 1 July snowfall 1.1  
Since 1 September snowfall 1.1  
Snow Depth -    
Sea Level Pressure  
Sea Level Pressure 30.24 in    
Wind  
Wind Speed 5 mph (SSE)    
Max Wind Speed 13 mph    
Max Gust Speed 18 mph    
Visibility 8 miles    
Events Rain    
T = Trace of Precipitation, MM = Missing Value Source: NWS Daily Summary

Daily Weather History Graph

Daily Weather History Graph

Search for Another Location

Airport or City:

Trip Planner

Search our weather history database for the weather conditions in past years. The results will help you decide how hot, cold, wet, or windy it might be!

Date:

Astronomy

Nov. 21, 2013 Rise Set
Actual Time 7:31 AM EST 5:09 PM EST
Civil Twilight 7:01 AM EST 5:39 PM EST
Nautical Twilight 6:26 AM EST 6:13 PM EST
Astronomical Twilight 5:53 AM EST 6:46 PM EST
Moon 8:45 PM EST (11/21) 10:36 AM EST (11/21)
Length of Visible Light 10h 38m
Length of Day
9h 38m
Waning Gibbous, 85% of the Moon is Illuminated
Nov 21
Waning Gibbous
Nov 25
Last Quarter
Dec 2
New
Dec 9
First Quarter
Dec 17
Full

Hourly Weather History & Observations

Time (EST) Temp. Windchill Dew Point Humidity Pressure Visibility Wind Dir Wind Speed Gust Speed Precip Events Conditions
12:15 AM 41.0 °F 38.0 °F 28.4 °F 61% 30.27 in 10.0 mi SSE 4.6 mph - N/A   Overcast
12:35 AM 41.0 °F 38.0 °F 28.4 °F 61% 30.26 in 10.0 mi SE 4.6 mph - N/A   Overcast
12:55 AM 41.0 °F 38.0 °F 30.2 °F 65% 30.26 in 10.0 mi SSE 4.6 mph - N/A   Overcast
1:15 AM 41.0 °F 38.0 °F 30.2 °F 65% 30.25 in 10.0 mi SSE 4.6 mph - N/A   Overcast
1:35 AM 42.8 °F 40.1 °F 30.2 °F 61% 30.26 in 10.0 mi SSE 4.6 mph - N/A   Overcast
1:55 AM 42.8 °F 41.1 °F 30.2 °F 61% 30.26 in 10.0 mi SSE 3.5 mph - N/A   Overcast
2:15 AM 42.8 °F 40.1 °F 30.2 °F 61% 30.27 in 10.0 mi SE 4.6 mph - N/A   Overcast
2:35 AM 42.8 °F 40.1 °F 32.0 °F 66% 30.27 in 10.0 mi South 4.6 mph - N/A   Overcast
2:55 AM 42.8 °F 39.3 °F 32.0 °F 66% 30.27 in 10.0 mi SSE 5.8 mph - N/A   Light Drizzle
3:15 AM 42.8 °F 39.3 °F 32.0 °F 66% 30.27 in 10.0 mi SSE 5.8 mph - N/A   Overcast
3:35 AM 42.8 °F 41.1 °F 32.0 °F 66% 30.28 in 10.0 mi SE 3.5 mph - N/A Rain Light Rain
3:55 AM 41.0 °F - 33.8 °F 76% 30.27 in 10.0 mi Calm Calm - N/A Rain Light Rain
4:15 AM 41.0 °F - 35.6 °F 81% 30.27 in 10.0 mi Calm Calm - N/A   Overcast
4:35 AM 41.0 °F - 35.6 °F 81% 30.27 in 10.0 mi Calm Calm - N/A   Overcast
4:55 AM 41.0 °F 38.0 °F 35.6 °F 81% 30.27 in 10.0 mi ESE 4.6 mph - N/A   Overcast
5:15 AM 41.0 °F 38.0 °F 33.8 °F 76% 30.27 in 10.0 mi SE 4.6 mph - N/A   Overcast
5:35 AM 42.8 °F 39.3 °F 33.8 °F 70% 30.27 in 10.0 mi SE 5.8 mph - N/A   Overcast
5:55 AM 42.8 °F 39.3 °F 32.0 °F 66% 30.26 in 10.0 mi SE 5.8 mph - N/A   Overcast
6:15 AM 42.8 °F 39.3 °F 32.0 °F 66% 30.26 in 10.0 mi SSE 5.8 mph - N/A   Overcast
6:35 AM 42.8 °F 38.0 °F 32.0 °F 66% 30.25 in 10.0 mi SE 8.1 mph - N/A   Overcast
6:55 AM 42.8 °F 38.6 °F 32.0 °F 66% 30.25 in 10.0 mi SSE 6.9 mph - N/A   Overcast
7:15 AM 42.8 °F 38.0 °F 32.0 °F 66% 30.25 in 10.0 mi SSE 8.1 mph - N/A   Overcast
7:35 AM 44.6 °F 40.2 °F 33.8 °F 66% 30.25 in 10.0 mi SSE 8.1 mph - N/A   Overcast
7:55 AM 42.8 °F 37.0 °F 33.8 °F 70% 30.27 in 10.0 mi South 10.4 mph - N/A   Overcast
8:15 AM 42.8 °F 37.0 °F 33.8 °F 70% 30.27 in 10.0 mi South 10.4 mph 17.3 mph N/A   Overcast
8:35 AM 42.8 °F 37.0 °F 35.6 °F 76% 30.27 in 10.0 mi South 10.4 mph - N/A   Overcast
8:55 AM 42.8 °F 36.6 °F 35.6 °F 76% 30.28 in 10.0 mi South 11.5 mph 18.4 mph N/A   Overcast
9:15 AM 42.8 °F 36.6 °F 35.6 °F 76% 30.28 in 10.0 mi SSW 11.5 mph 17.3 mph N/A   Drizzle
9:35 AM 42.8 °F 37.0 °F 37.4 °F 81% 30.29 in 10.0 mi South 10.4 mph 17.3 mph N/A   Overcast
9:55 AM 42.8 °F 37.5 °F 37.4 °F 81% 30.29 in 10.0 mi South 9.2 mph 16.1 mph N/A   Overcast
10:15 AM 44.6 °F 38.4 °F 39.2 °F 81% 30.29 in 10.0 mi South 12.7 mph - N/A   Overcast
10:35 AM 44.6 °F 39.7 °F 39.2 °F 81% 30.29 in 10.0 mi South 9.2 mph 17.3 mph N/A   Overcast
10:55 AM 44.6 °F 40.2 °F 39.2 °F 81% 30.29 in 10.0 mi South 8.1 mph - N/A   Overcast
11:15 AM 44.6 °F 40.7 °F 41.0 °F 87% 30.28 in 10.0 mi South 6.9 mph - N/A   Overcast
11:35 AM 44.6 °F 39.7 °F 41.0 °F 87% 30.27 in 10.0 mi South 9.2 mph - N/A   Overcast
11:55 AM 46.4 °F 42.9 °F 41.0 °F 81% 30.27 in 10.0 mi South 6.9 mph - N/A   Overcast
12:15 PM 46.4 °F 42.9 °F 41.0 °F 81% 30.27 in 10.0 mi SSW 6.9 mph - N/A   Overcast
12:35 PM 46.4 °F 42.4 °F 41.0 °F 81% 30.27 in 10.0 mi South 8.1 mph - N/A   Overcast
12:55 PM 46.4 °F 43.5 °F 41.0 °F 81% 30.25 in 10.0 mi South 5.8 mph - N/A   Overcast
1:15 PM 46.4 °F 45.2 °F 42.8 °F 87% 30.25 in 5.0 mi South 3.5 mph - N/A Rain Light Rain
1:35 PM 44.6 °F 42.2 °F 42.8 °F 93% 30.23 in 7.0 mi South 4.6 mph - N/A Rain Rain
1:55 PM 44.6 °F 42.2 °F 42.8 °F 93% 30.22 in 7.0 mi South 4.6 mph - N/A   Overcast
2:15 PM 46.4 °F 44.3 °F 42.8 °F 87% 30.22 in 7.0 mi South 4.6 mph - N/A   Drizzle
2:35 PM 46.4 °F 45.2 °F 42.8 °F 87% 30.22 in 7.0 mi SSE 3.5 mph - N/A   Drizzle
2:55 PM 46.4 °F 44.3 °F 42.8 °F 87% 30.21 in 7.0 mi SSE 4.6 mph - N/A   Overcast
3:15 PM 46.4 °F 45.2 °F 42.8 °F 87% 30.21 in 7.0 mi South 3.5 mph - N/A   Overcast
3:35 PM 46.4 °F 42.9 °F 42.8 °F 87% 30.22 in 7.0 mi South 6.9 mph - N/A Rain Light Rain
3:55 PM 44.6 °F 42.2 °F 41.0 °F 87% 30.23 in 7.0 mi South 4.6 mph - N/A Rain Light Rain
4:15 PM 44.6 °F 42.2 °F 41.0 °F 87% 30.23 in 7.0 mi South 4.6 mph - N/A Rain Light Rain
4:35 PM 44.6 °F 42.2 °F 41.0 °F 87% 30.23 in 7.0 mi South 4.6 mph - N/A Rain Light Rain
4:55 PM 44.6 °F 43.1 °F 42.8 °F 93% 30.23 in 5.0 mi SSE 3.5 mph - N/A Rain Light Rain
5:15 PM 44.6 °F - 42.8 °F 93% 30.23 in 5.0 mi Calm Calm - N/A Rain Rain
5:35 PM 44.6 °F 43.1 °F 42.8 °F 93% 30.24 in 5.0 mi South 3.5 mph - N/A Rain Light Rain
5:55 PM 44.6 °F 43.1 °F 42.8 °F 93% 30.23 in 5.0 mi SE 3.5 mph - N/A Rain Rain
6:15 PM 44.6 °F 42.2 °F 42.8 °F 93% 30.23 in 5.0 mi SE 4.6 mph - N/A Rain Rain
6:35 PM 44.6 °F 42.2 °F 42.8 °F 93% 30.22 in 4.0 mi SE 4.6 mph - N/A Rain Light Rain
6:55 PM 44.6 °F 42.2 °F 42.8 °F 93% 30.23 in 4.0 mi SSE 4.6 mph - N/A Rain Light Rain
7:15 PM 44.6 °F 41.4 °F 42.8 °F 93% 30.23 in 4.0 mi South 5.8 mph - N/A Rain Rain
7:35 PM 44.6 °F 42.2 °F 42.8 °F 93% 30.23 in 4.0 mi South 4.6 mph - N/A Rain Rain
7:55 PM 44.6 °F 42.2 °F 42.8 °F 93% 30.23 in 4.0 mi South 4.6 mph - N/A Rain Rain
8:15 PM 44.6 °F 42.2 °F 42.8 °F 93% 30.22 in 4.0 mi SSE 4.6 mph - N/A Rain Light Rain
8:35 PM 44.6 °F 43.1 °F 42.8 °F 93% 30.22 in 4.0 mi South 3.5 mph - N/A Rain Light Rain
8:55 PM 44.6 °F 43.1 °F 42.8 °F 93% 30.21 in 3.0 mi SSE 3.5 mph - N/A Rain Light Rain
9:15 PM 44.6 °F 43.1 °F 42.8 °F 93% 30.20 in 3.0 mi SSE 3.5 mph - N/A Rain Light Rain
9:35 PM 44.6 °F 43.1 °F 42.8 °F 93% 30.20 in 4.0 mi SSE 3.5 mph - N/A Rain Light Rain
9:55 PM 44.6 °F - 42.8 °F 93% 30.19 in 3.0 mi Calm Calm - N/A Rain Rain
10:15 PM 44.6 °F - 42.8 °F 93% 30.19 in 3.0 mi Calm Calm - N/A Rain Rain
10:35 PM 44.6 °F - 42.8 °F 93% 30.19 in 3.0 mi Calm Calm - N/A Rain Light Rain
10:55 PM 44.6 °F - 42.8 °F 93% 30.18 in 2.5 mi Calm Calm - N/A Rain Rain
11:15 PM 44.6 °F 43.1 °F 42.8 °F 93% 30.18 in 2.5 mi South 3.5 mph - N/A   Overcast
11:35 PM 44.6 °F 43.1 °F 42.8 °F 93% 30.18 in 2.0 mi South 3.5 mph - N/A Rain Light Rain
11:55 PM 44.6 °F 42.2 °F 44.6 °F 100% 30.18 in 2.0 mi South 4.6 mph - N/A Rain Light Rain